Time,TemperatureF,DewpointF,PressureIn,WindDirection,WindDirectionDegrees,WindSpeedMPH,WindSpeedGustMPH,Humidity,HourlyPrecipIn,Conditions,Clouds,dailyrainin,SoftwareType,DateUTC
2013-04-11 00:02:00,69.0,67.0,30.09,SW,233,3.0,7.0,94,0.01,,,0.09,,2013-04-11 10:02:00,
2013-04-11 00:12:00,68.0,66.0,30.09,WSW,240,1.0,4.0,94,0.00,,,0.07,,2013-04-11 10:12:00,
2013-04-11 00:22:00,68.0,66.0,30.09,WSW,240,1.0,4.0,94,0.00,,,0.07,,2013-04-11 10:22:00,
2013-04-11 00:32:00,68.0,66.0,30.09,WSW,251,2.0,5.0,94,0.00,,,0.07,,2013-04-11 10:32:00,
2013-04-11 00:41:00,68.0,66.0,30.09,WSW,251,2.0,5.0,94,0.00,,,0.07,,2013-04-11 10:41:00,
2013-04-11 00:52:00,68.0,66.0,30.09,SW,225,1.0,4.0,94,0.00,,,0.07,,2013-04-11 10:52:00,
2013-04-11 01:02:00,68.0,66.0,30.09,SW,225,1.0,4.0,94,0.00,,,0.07,,2013-04-11 11:02:00,
2013-04-11 01:11:00,68.0,66.0,30.08,SW,227,1.0,3.0,94,0.00,,,0.07,,2013-04-11 11:11:00,
2013-04-11 01:22:00,68.0,67.0,30.07,WSW,244,2.0,3.0,95,0.00,,,0.07,,2013-04-11 11:22:00,
2013-04-11 01:31:00,68.0,67.0,30.07,WSW,246,2.0,4.0,95,0.00,,,0.07,,2013-04-11 11:31:00,
2013-04-11 01:42:00,68.0,67.0,30.07,WSW,246,2.0,4.0,95,0.00,,,0.07,,2013-04-11 11:42:00,
2013-04-11 01:52:00,68.0,67.0,30.07,WSW,249,2.0,4.0,95,0.00,,,0.07,,2013-04-11 11:52:00,
2013-04-11 02:01:00,68.0,67.0,30.06,SW,224,1.0,4.0,95,0.00,,,0.07,,2013-04-11 12:01:00,
2013-04-11 02:12:00,68.0,67.0,30.06,SW,224,1.0,4.0,95,0.00,,,0.07,,2013-04-11 12:12:00,
2013-04-11 02:22:00,68.0,67.0,30.06,WSW,245,1.0,3.0,95,0.00,,,0.07,,2013-04-11 12:22:00,
2013-04-11 02:31:00,68.0,67.0,30.05,WSW,239,1.0,3.0,95,0.00,,,0.07,,2013-04-11 12:31:00,
2013-04-11 02:42:00,68.0,67.0,30.05,WSW,239,1.0,3.0,95,0.00,,,0.07,,2013-04-11 12:42:00,
2013-04-11 02:52:00,68.0,67.0,30.04,WSW,240,2.0,3.0,95,0.00,,,0.07,,2013-04-11 12:52:00,
2013-04-11 03:02:00,68.0,67.0,30.04,SW,220,2.0,4.0,95,0.00,,,0.07,,2013-04-11 13:02:00,
2013-04-11 03:12:00,68.0,67.0,30.03,SW,218,2.0,4.0,95,0.00,,,0.07,,2013-04-11 13:12:00,
2013-04-11 03:22:00,68.0,67.0,30.03,SW,218,2.0,4.0,95,0.00,,,0.07,,2013-04-11 13:22:00,
2013-04-11 03:32:00,68.0,67.0,30.03,SW,233,1.0,4.0,95,0.00,,,0.07,,2013-04-11 13:32:00,
2013-04-11 03:42:00,68.0,67.0,30.03,SW,233,1.0,4.0,95,0.00,,,0.07,,2013-04-11 13:42:00,
2013-04-11 03:53:00,68.0,67.0,30.03,SW,234,1.0,3.0,95,0.00,,,0.07,,2013-04-11 13:53:00,
2013-04-11 04:01:00,67.0,66.0,30.03,SW,232,1.0,3.0,95,0.00,,,0.07,,2013-04-11 14:01:00,
2013-04-11 04:12:00,67.0,66.0,30.03,SW,232,1.0,3.0,95,0.00,,,0.07,,2013-04-11 14:12:00,
2013-04-11 04:22:00,67.0,66.0,30.03,SW,227,2.0,3.0,95,0.00,,,0.07,,2013-04-11 14:22:00,
2013-04-11 04:31:00,67.0,66.0,30.03,SW,215,2.0,4.0,95,0.00,,,0.07,,2013-04-11 14:31:00,
2013-04-11 04:42:00,67.0,66.0,30.03,SW,215,2.0,4.0,95,0.00,,,0.07,,2013-04-11 14:42:00,
2013-04-11 04:52:00,67.0,66.0,30.03,SW,215,2.0,4.0,95,0.00,,,0.07,,2013-04-11 14:52:00,
2013-04-11 05:02:00,67.0,66.0,30.03,SW,231,3.0,5.0,96,0.00,,,0.07,,2013-04-11 15:02:00,
2013-04-11 05:12:00,67.0,66.0,30.03,SW,231,3.0,5.0,96,0.00,,,0.07,,2013-04-11 15:12:00,
2013-04-11 05:21:00,67.0,66.0,30.03,WSW,238,2.0,4.0,95,0.00,,,0.07,,2013-04-11 15:21:00,
2013-04-11 05:32:00,67.0,66.0,30.03,SW,228,2.0,5.0,95,0.00,,,0.07,,2013-04-11 15:32:00,
2013-04-11 05:42:00,67.0,66.0,30.03,SW,228,2.0,5.0,95,0.00,,,0.07,,2013-04-11 15:42:00,
2013-04-11 05:53:00,67.0,66.0,30.03,SW,234,3.0,5.0,95,0.00,,,0.07,,2013-04-11 15:53:00,
2013-04-11 06:02:00,66.0,65.0,30.04,SW,233,3.0,5.0,95,0.00,,,0.07,,2013-04-11 16:02:00,
2013-04-11 06:12:00,66.0,65.0,30.04,SW,233,3.0,5.0,95,0.00,,,0.07,,2013-04-11 16:12:00,
2013-04-11 06:22:00,66.0,65.0,30.04,WSW,237,2.0,4.0,96,0.00,,,0.07,,2013-04-11 16:22:00,
2013-04-11 06:32:00,66.0,65.0,30.05,WSW,251,3.0,5.0,96,0.00,,,0.07,,2013-04-11 16:32:00,
2013-04-11 06:41:00,66.0,65.0,30.05,WSW,251,3.0,5.0,96,0.00,,,0.07,,2013-04-11 16:41:00,
2013-04-11 06:52:00,66.0,65.0,30.05,SW,219,3.0,5.0,96,0.00,,,0.07,,2013-04-11 16:52:00,
2013-04-11 07:01:00,67.0,66.0,30.05,SW,218,3.0,7.0,96,0.00,,,0.07,,2013-04-11 17:01:00,
2013-04-11 07:12:00,67.0,66.0,30.05,SW,218,3.0,7.0,96,0.00,,,0.07,,2013-04-11 17:12:00,
2013-04-11 07:22:00,67.0,66.0,30.06,SW,229,2.0,5.0,96,0.00,,,0.07,,2013-04-11 17:22:00,
2013-04-11 07:32:00,68.0,67.0,30.06,SW,216,2.0,5.0,96,0.00,,,0.07,,2013-04-11 17:32:00,
2013-04-11 07:42:00,68.0,67.0,30.06,SW,216,2.0,5.0,96,0.00,,,0.07,,2013-04-11 17:42:00,
2013-04-11 07:52:00,69.0,68.0,30.07,WSW,243,1.0,4.0,96,0.00,,,0.07,,2013-04-11 17:52:00,
2013-04-11 08:02:00,70.0,69.0,30.07,SW,220,1.0,3.0,96,0.00,,,0.07,,2013-04-11 18:02:00,
2013-04-11 08:12:00,70.0,69.0,30.07,SW,220,1.0,3.0,96,0.00,,,0.07,,2013-04-11 18:12:00,
2013-04-11 08:22:00,70.0,69.0,30.08,SW,217,2.0,5.0,96,0.01,,,0.08,,2013-04-11 18:22:00,
2013-04-11 08:32:00,71.0,70.0,30.08,SSW,207,1.0,5.0,96,0.01,,,0.08,,2013-04-11 18:32:00,
2013-04-11 08:42:00,71.0,70.0,30.08,SSW,207,1.0,5.0,96,0.01,,,0.08,,2013-04-11 18:42:00,
2013-04-11 08:53:00,73.0,72.0,30.09,SSW,208,1.0,5.0,96,0.01,,,0.08,,2013-04-11 18:53:00,
2013-04-11 09:02:00,73.0,71.0,30.09,SSW,193,0.0,1.0,95,0.01,,,0.08,,2013-04-11 19:02:00,
2013-04-11 09:13:00,73.0,71.0,30.09,SSW,193,0.0,1.0,95,0.01,,,0.08,,2013-04-11 19:13:00,
2013-04-11 09:22:00,72.0,70.0,30.09,East,94,5.0,9.0,93,0.00,,,0.08,,2013-04-11 19:22:00,
2013-04-11 09:32:00,73.0,71.0,30.09,East,85,3.0,9.0,94,0.00,,,0.08,,2013-04-11 19:32:00,
2013-04-11 09:42:00,73.0,71.0,30.09,East,85,3.0,9.0,94,0.00,,,0.08,,2013-04-11 19:42:00,
2013-04-11 09:53:00,73.0,70.0,30.08,East,89,5.0,8.0,91,0.00,,,0.08,,2013-04-11 19:53:00,
2013-04-11 10:02:00,74.0,70.0,30.08,East,93,8.0,12.0,88,0.00,,,0.08,,2013-04-11 20:02:00,
2013-04-11 10:12:00,74.0,70.0,30.08,East,93,8.0,12.0,88,0.00,,,0.08,,2013-04-11 20:12:00,
2013-04-11 10:21:00,73.0,69.0,30.08,East,95,7.0,11.0,88,0.00,,,0.07,,2013-04-11 20:21:00,
2013-04-11 10:32:00,74.0,70.0,30.08,East,92,6.0,11.0,86,0.00,,,0.07,,2013-04-11 20:32:00,
2013-04-11 10:42:00,74.0,70.0,30.08,East,92,6.0,11.0,86,0.00,,,0.07,,2013-04-11 20:42:00,
2013-04-11 10:52:00,73.0,70.0,30.08,East,86,4.0,11.0,89,0.00,,,0.07,,2013-04-11 20:52:00,
2013-04-11 11:11:00,74.0,70.0,30.07,East,81,3.0,5.0,87,0.00,,,0.07,,2013-04-11 21:11:00,
2013-04-11 11:22:00,74.0,70.0,30.07,East,98,3.0,7.0,86,0.00,,,0.07,,2013-04-11 21:22:00,
2013-04-11 11:32:00,74.0,69.0,30.06,East,99,3.0,4.0,85,0.00,,,0.07,,2013-04-11 21:32:00,
2013-04-11 11:42:00,74.0,69.0,30.06,East,99,3.0,4.0,85,0.00,,,0.07,,2013-04-11 21:42:00,
2013-04-11 11:53:00,74.0,69.0,30.06,East,81,2.0,5.0,84,0.00,,,0.07,,2013-04-11 21:53:00,
2013-04-11 12:02:00,74.0,69.0,30.05,East,89,2.0,5.0,85,0.00,,,0.07,,2013-04-11 22:02:00,
2013-04-11 12:13:00,74.0,69.0,30.05,East,89,2.0,5.0,85,0.00,,,0.07,,2013-04-11 22:13:00,
2013-04-11 12:22:00,74.0,70.0,30.05,East,95,3.0,6.0,86,0.01,,,0.08,,2013-04-11 22:22:00,
2013-04-11 12:32:00,74.0,70.0,30.04,East,101,3.0,5.0,86,0.01,,,0.08,,2013-04-11 22:32:00,
2013-04-11 12:43:00,74.0,70.0,30.04,East,101,3.0,5.0,86,0.01,,,0.08,,2013-04-11 22:43:00,
2013-04-11 12:53:00,73.0,70.0,30.04,East,81,2.0,4.0,89,0.06,,,0.13,,2013-04-11 22:53:00,
2013-04-11 13:02:00,75.0,71.0,30.03,East,91,5.0,10.0,86,0.06,,,0.13,,2013-04-11 23:02:00,
2013-04-11 13:12:00,75.0,71.0,30.03,East,91,5.0,10.0,86,0.06,,,0.13,,2013-04-11 23:12:00,
2013-04-11 13:22:00,75.0,70.0,30.02,East,85,6.0,13.0,84,0.05,,,0.13,,2013-04-11 23:22:00,
2013-04-11 13:32:00,75.0,69.0,30.02,ENE,76,5.0,11.0,83,0.05,,,0.13,,2013-04-11 23:32:00,
2013-04-11 13:42:00,75.0,69.0,30.02,ENE,76,5.0,11.0,83,0.05,,,0.13,,2013-04-11 23:42:00,
2013-04-11 13:53:00,76.0,70.0,30.01,ESE,103,6.0,10.0,81,0.00,,,0.13,,2013-04-11 23:53:00,
2013-04-11 14:02:00,76.0,69.0,30.01,East,86,6.0,10.0,79,0.00,,,0.13,,2013-04-12 00:02:00,
2013-04-11 14:11:00,76.0,69.0,30.01,East,86,6.0,10.0,79,0.00,,,0.13,,2013-04-12 00:11:00,
2013-04-11 14:22:00,75.0,69.0,30.00,East,90,7.0,11.0,82,0.00,,,0.13,,2013-04-12 00:22:00,
2013-04-11 14:32:00,75.0,69.0,30.00,East,91,7.0,11.0,81,0.00,,,0.13,,2013-04-12 00:32:00,
2013-04-11 14:42:00,75.0,69.0,30.00,East,91,7.0,11.0,81,0.00,,,0.13,,2013-04-12 00:42:00,
2013-04-11 14:52:00,75.0,69.0,29.99,East,81,6.0,10.0,82,0.00,,,0.13,,2013-04-12 00:52:00,
2013-04-11 15:02:00,75.0,69.0,29.99,East,85,6.0,10.0,82,0.00,,,0.13,,2013-04-12 01:02:00,
2013-04-11 15:12:00,75.0,69.0,29.99,East,85,6.0,10.0,82,0.00,,,0.13,,2013-04-12 01:12:00,
2013-04-11 15:22:00,75.0,69.0,29.98,East,93,6.0,11.0,82,0.00,,,0.13,,2013-04-12 01:22:00,
2013-04-11 15:32:00,75.0,68.0,29.99,East,87,7.0,10.0,80,0.00,,,0.13,,2013-04-12 01:32:00,
2013-04-11 15:42:00,75.0,68.0,29.99,East,87,7.0,10.0,80,0.00,,,0.13,,2013-04-12 01:42:00,
2013-04-11 15:52:00,75.0,69.0,29.98,East,88,6.0,9.0,82,0.00,,,0.13,,2013-04-12 01:52:00,
2013-04-11 16:02:00,75.0,69.0,29.98,East,81,6.0,10.0,83,0.00,,,0.13,,2013-04-12 02:02:00,
2013-04-11 16:12:00,75.0,69.0,29.98,East,81,6.0,10.0,83,0.00,,,0.13,,2013-04-12 02:12:00,
2013-04-11 16:22:00,75.0,69.0,29.98,East,81,6.0,10.0,82,0.00,,,0.13,,2013-04-12 02:22:00,
2013-04-11 16:32:00,75.0,69.0,29.98,East,89,6.0,10.0,83,0.00,,,0.13,,2013-04-12 02:32:00,
2013-04-11 16:42:00,75.0,69.0,29.98,East,89,6.0,10.0,83,0.00,,,0.13,,2013-04-12 02:42:00,
2013-04-11 16:52:00,75.0,69.0,29.98,East,99,7.0,11.0,81,0.00,,,0.13,,2013-04-12 02:52:00,
2013-04-11 17:01:00,75.0,69.0,29.97,East,98,6.0,10.0,82,0.00,,,0.13,,2013-04-12 03:01:00,
2013-04-11 17:11:00,75.0,69.0,29.97,East,98,6.0,10.0,82,0.00,,,0.13,,2013-04-12 03:11:00,
2013-04-11 17:22:00,75.0,69.0,29.97,East,89,6.0,10.0,82,0.00,,,0.13,,2013-04-12 03:22:00,
2013-04-11 17:32:00,75.0,68.0,29.98,East,92,5.0,9.0,80,0.00,,,0.13,,2013-04-12 03:32:00,
2013-04-11 17:43:00,75.0,68.0,29.98,East,92,5.0,9.0,80,0.00,,,0.13,,2013-04-12 03:43:00,
2013-04-11 17:53:00,75.0,68.0,29.98,East,85,6.0,8.0,80,0.00,,,0.13,,2013-04-12 03:53:00,
2013-04-11 18:02:00,75.0,68.0,29.98,East,93,5.0,9.0,80,0.00,,,0.13,,2013-04-12 04:02:00,
2013-04-11 18:13:00,75.0,68.0,29.98,East,93,5.0,9.0,80,0.00,,,0.13,,2013-04-12 04:13:00,
2013-04-11 18:22:00,75.0,68.0,29.98,East,93,6.0,9.0,78,0.00,,,0.13,,2013-04-12 04:22:00,
2013-04-11 18:33:00,75.0,68.0,29.99,East,91,6.0,10.0,79,0.00,,,0.13,,2013-04-12 04:33:00,
2013-04-11 18:43:00,75.0,68.0,29.99,East,91,6.0,10.0,79,0.00,,,0.13,,2013-04-12 04:43:00,
2013-04-11 18:52:00,75.0,68.0,29.99,East,94,6.0,9.0,80,0.00,,,0.13,,2013-04-12 04:52:00,
2013-04-11 19:02:00,75.0,68.0,29.99,East,90,7.0,11.0,78,0.00,,,0.13,,2013-04-12 05:02:00,
2013-04-11 19:11:00,75.0,68.0,29.99,East,90,7.0,11.0,78,0.00,,,0.13,,2013-04-12 05:11:00,
2013-04-11 19:22:00,75.0,68.0,30.00,ESE,109,8.0,11.0,78,0.00,,,0.13,,2013-04-12 05:22:00,
2013-04-11 19:32:00,75.0,68.0,30.00,ESE,106,9.0,13.0,79,0.00,,,0.13,,2013-04-12 05:32:00,
2013-04-11 19:42:00,75.0,68.0,30.00,ESE,106,9.0,13.0,79,0.00,,,0.13,,2013-04-12 05:42:00,
2013-04-11 19:52:00,75.0,68.0,30.01,ESE,102,9.0,13.0,79,0.00,,,0.13,,2013-04-12 05:52:00,
2013-04-11 20:02:00,75.0,68.0,30.01,East,89,8.0,15.0,80,0.00,,,0.13,,2013-04-12 06:02:00,
2013-04-11 20:12:00,75.0,68.0,30.01,East,89,8.0,15.0,80,0.00,,,0.13,,2013-04-12 06:12:00,
2013-04-11 20:22:00,75.0,69.0,30.02,East,101,7.0,10.0,81,0.00,,,0.13,,2013-04-12 06:22:00,
2013-04-11 20:31:00,75.0,69.0,30.02,East,94,5.0,10.0,81,0.00,,,0.13,,2013-04-12 06:31:00,
2013-04-11 20:42:00,75.0,69.0,30.02,East,94,5.0,10.0,81,0.00,,,0.13,,2013-04-12 06:42:00,
2013-04-11 20:52:00,75.0,68.0,30.03,ESE,106,7.0,12.0,80,0.00,,,0.13,,2013-04-12 06:52:00,
2013-04-11 21:01:00,75.0,69.0,30.03,East,99,6.0,10.0,82,0.00,,,0.13,,2013-04-12 07:01:00,
2013-04-11 21:11:00,75.0,69.0,30.03,East,99,6.0,10.0,82,0.00,,,0.13,,2013-04-12 07:11:00,
2013-04-11 21:22:00,74.0,68.0,30.03,East,96,5.0,7.0,82,0.00,,,0.13,,2013-04-12 07:22:00,
2013-04-11 21:32:00,74.0,68.0,30.03,SSE,160,2.0,7.0,82,0.00,,,0.13,,2013-04-12 07:32:00,
2013-04-11 21:42:00,74.0,68.0,30.03,SSE,160,2.0,7.0,82,0.00,,,0.13,,2013-04-12 07:42:00,
2013-04-11 21:52:00,73.0,67.0,30.04,SSW,207,2.0,3.0,82,0.00,,,0.13,,2013-04-12 07:52:00,
2013-04-11 22:02:00,73.0,67.0,30.04,SSW,200,1.0,4.0,82,0.00,,,0.13,,2013-04-12 08:02:00,
2013-04-11 22:11:00,73.0,67.0,30.04,SSW,200,1.0,4.0,82,0.00,,,0.13,,2013-04-12 08:11:00,
2013-04-11 22:22:00,73.0,68.0,30.04,South,184,2.0,5.0,83,0.00,,,0.13,,2013-04-12 08:22:00,
2013-04-11 22:32:00,72.0,67.0,30.04,SSW,204,2.0,4.0,83,0.00,,,0.13,,2013-04-12 08:32:00,
2013-04-11 22:42:00,72.0,67.0,30.04,SSW,204,2.0,4.0,83,0.00,,,0.13,,2013-04-12 08:42:00,
2013-04-11 22:52:00,72.0,67.0,30.04,SW,226,1.0,3.0,84,0.00,,,0.13,,2013-04-12 08:52:00,
2013-04-11 23:01:00,71.0,66.0,30.04,SW,218,2.0,4.0,85,0.00,,,0.13,,2013-04-12 09:01:00,
2013-04-11 23:22:00,70.0,66.0,30.04,SW,225,2.0,4.0,86,0.00,,,0.08,,2013-04-12 09:22:00,
2013-04-11 23:32:00,70.0,66.0,30.03,SW,222,2.0,4.0,87,0.00,,,0.08,,2013-04-12 09:32:00,
2013-04-11 23:42:00,70.0,66.0,30.03,SW,222,2.0,4.0,87,0.00,,,0.08,,2013-04-12 09:42:00,
2013-04-11 23:53:00,70.0,66.0,30.02,SW,226,2.0,4.0,88,0.00,,,0.08,,2013-04-12 09:53:00,